Regional Weather Roundup
Issued by NWS Albany, NY

Home | Current Version | Previous Version | Text Only | Print | Product List | Glossary On
Versions: 1 2 3 4 5 6 7 8 9 10 11 12 13 14 15 16 17 18 19 20 21 22 23 24 25 26 27 28 29 30 31 32 33 34 35 36 37 38 39 40 41 42 43 44 45 46 47 48 49 50
000
ASUS41 KALY 020210
RWRALY

NEW YORK STATE HOURLY WEATHER ROUNDUP
NATIONAL WEATHER SERVICE ALBANY NY
1000 PM EDT FRI AUG 01 2014

NOTE: "FAIR" INDICATES FEW OR NO CLOUDS BELOW 12,000 FEET WITH NO
SIGNIFICANT WEATHER AND/OR NO OBSTRUCTIONS TO VISIBILITY.

NYZ032-033-038>043-046>054-057>066-NYZ062>081-020300-
EAST


CITY           SKY/WX    TMP DP  RH WIND       PRES   REMARKS
ALBANY         MOCLDY    72  62  71 S8        30.19R
GLENS FALLS    PTCLDY    71  61  70 S8        30.19R
POUGHKEEPSIE   CLOUDY    69  67  93 CALM      30.20S FOG
MONTGOMERY     CLOUDY    67  64  90 CALM      30.21S
WHITE PLAINS   CLOUDY    69  66  90 CALM      30.21S
ISLIP          CLOUDY    74  66  76 S3        30.21R
NEW YORK CITY  CLOUDY    77  61  57 VRB5      30.20R
CENTRAL PARK   CLOUDY    74  62  66 CALM      30.23S
$$

NYZ005>009-017-018-044>046-055-056-020300-
CENTRAL


CITY           SKY/WX    TMP DP  RH WIND       PRES   REMARKS
FULTON         MOCLDY    71  61  70 NW9       30.15R
SYRACUSE       MOCLDY    71  64  78 E6        30.13R
ROME           PTCLDY    69  64  84 SE9       30.16R
ELMIRA         PTCLDY    67  61  81 CALM      30.14R
BINGHAMTON     MOCLDY    68  62  81 SE7       30.20R
MONTICELLO     CLOUDY    63  63 100 E3        30.25S
$$

NYZ026>034-041>043-020300-
NORTH


CITY           SKY/WX    TMP DP  RH WIND       PRES   REMARKS
WATERTOWN      PTCLDY    66  61  84 CALM      30.14R
FORT DRUM      NOT AVBL
MASSENA        CLEAR     63  62  97 CALM      30.14R
SARANAC LAKE   CLEAR     59  58  96 CALM      30.20R FOG
PLATTSBURGH    CLEAR     67  66  97 SW3       30.14R
$$

NYZ001>004-010>016-019>021-020300-
WEST


CITY           SKY/WX    TMP DP  RH WIND       PRES   REMARKS
BUFFALO        PTCLDY    69  63  81 NE5       30.12S
DUNKIRK        PTCLDY    67  62  84 VRB3      30.12S
JAMESTOWN      PTCLDY    70  59  68 NE5       30.16S
WELLSVILLE     PTCLDY    71  58  63 SW5       30.21R
ROCHESTER      MOCLDY    68  62  81 CALM      30.13S
PENN YAN       PTCLDY    70  59  68 VRB3      30.16R
$$

             KEY
       WCI = WIND CHILL INDEX
       VSB = VISIBILITY
       HX  = HEAT INDEX
$$



USA.gov is the U.S. government's official web portal to all federal, state and local government web resources and services.